Content
SEND FEEDBACK

Daily
Averages
Monthly
Summary
United States of America

ASHEVILLE, NORTH CAROLINA


Home > North America > United States > North Carolina
Elevation: 2240 feet     Latitude: 35 36N     Longitude: 082 32W

WEATHER
 
SELECT A DAY
Number of Records: 229,403;   Date Range: 1/1/95 - 10/18/14
 
SHARE

PRINT THIS DATA

[ ← Previous Day ]
WEATHER ALMANAC - FEBRUARY 20, 2013
[ Next Day → ]
[ °C ]   °F
Weather ElementAverageHighLow
Temperature35.6 °F45 °F (2:54 pm)28 °F (7:54 am)
Dewpoint7.1 °F10.9 °F (1:54 am) (7:00 pm)
Humidity32.5 %49 % (7:54 am)17 % (12:54 pm)
Barometer30.09 in30.14 in (7:54 pm)30.03 in (1:54 am)
Wind Speed13.7 mph21.9 mph (10:54 am)
Wind Gust28.8 mph (10:54 am)
Weather ElementAverage
Visibility10 mi
Wind DirectionNNW (345.2 °)

Weather ElementTotal
Precipitation---
Heating Degree Days28.5 (Base 65)
Averaged from 23 records on February 20, 2013
WEATHER CONDITIONS BREAKOUT
WIND DIRECTION BREAKOUT
WEATHER BY HOUR - FEBRUARY 20, 2013
[ °C ]   °F
Local TimeTemperatureDewpointHumidityBarometerVisibilityWind DirectionWind SpeedGust SpeedPrecipitationEventsConditions
1:54 AM33.1 °F10.9 °F40 %30.03 in10.0 miNorth (360°)10.4 mphClear
2:54 AM30.9 °F9.0 °F40 %30.04 in10.0 miNNW (340°)12.7 mphClear
3:54 AM30.0 °F9.0 °F41 %30.05 in10.0 miNorth (350°)10.4 mph20.7 mphClear
4:54 AM30.0 °F9.0 °F41 %30.04 in10.0 miNorth (360°)13.8 mph19.6 mphClear
5:54 AM28.9 °F10.0 °F45 %30.06 in10.0 miNorth (350°)11.5 mphClear
6:54 AM28.9 °F10.9 °F47 %30.07 in10.0 miNorth (350°)9.2 mph19.6 mphClear
7:54 AM28.0 °F10.9 °F49 %30.09 in10.0 miNW (320°)10.4 mphClear
8:54 AM33.1 °F10.9 °F40 %30.11 in10.0 miNNW (340°)13.8 mph21.9 mphClear
9:54 AM36.0 °F9.0 °F33 %30.12 in10.0 miNorth (350°)9.2 mph18.4 mphClear
10:54 AM39.0 °F6.1 °F26 %30.12 in10.0 miNNW (340°)21.9 mph28.8 mphClear
11:54 AM41.0 °F1.0 °F19 %30.10 in10.0 miNorth (350°)16.1 mph24.2 mphClear
12:54 PM43.0 °F0.0 °F17 %30.08 in10.0 miNorth (360°)15.0 mph21.9 mphClear
1:54 PM44.1 °F1.9 °F17 %30.05 in10.0 miNorth (360°)13.8 mph24.2 mphClear
2:54 PM45.0 °F3.0 °F18 %30.05 in10.0 miNorth (360°)15.0 mph24.2 mphClear
3:54 PM45.0 °F3.9 °F18 %30.07 in10.0 miNNW (330°)16.1 mph20.7 mphClear
4:54 PM43.0 °F1.9 °F18 %30.09 in10.0 miNNW (330°)16.1 mphClear
5:54 PM39.9 °F5.0 °F23 %30.13 in10.0 miNNW (340°)18.4 mph23.0 mphClear
6:54 PM37.0 °F8.1 °F30 %30.12 in10.0 miNNW (340°)17.3 mphClear
7:54 PM36.0 °F8.1 °F31 %30.14 in10.0 miNorth (350°)19.6 mphClear
8:54 PM33.1 °F9.0 °F37 %30.14 in10.0 miNNW (340°)9.2 mphClear
9:54 PM32.0 °F8.1 °F37 %30.14 in10.0 miNorth (350°)10.4 mphClear
10:54 PM30.9 °F9.0 °F40 %30.13 in10.0 miNNW (340°)12.7 mphClear
11:54 PM30.0 °F9.0 °F41 %30.13 in10.0 miNNW (330°)12.7 mphClear
Hourly data recorded from KAVL, located miles away from Asheville, North Carolina







STORIES FROM OUR PARTNERS